Погода в Карманове

Россия / Республика Башкортостан     56°13′54″N   54°32′22″E
темп.,
°C
ветер,
м/с
пор.,
м/с
влажн.,
%
обл.,
%
осадки,
мм/ч
давл.,
гПа
погр.,
м
10 мая, пн
пн1023:00+15ююв11571 0.0 101711
02:00+14в11600 0.0 101711
05:00+12в22685 0.0 101911
08:00+16вюв23585 0.0 1020139
11:00+21юв344315 0.0 1020648
14:00+24юв343264 0.0 10212347
17:00+24юв333076 0.0 10212584
20:00+21вюв114513 0.0 102111
11 мая, вт
вт1123:00+16вюв115141 0.0 102211
02:00+15вюв115450 0.0 102311
05:00+13вюв0158100 0.0 102410
08:00+16вюв1356100 0.0 1025103
11:00+21ююв2244100 0.0 1026441
14:00+24ю2135100 0.0 10261205
17:00+24ююв223257 0.0 10262089
20:00+21ю22495 0.0 102718
12 мая, ср
ср1223:00+16з11614 0.0 102811
02:00+15юз11615 0.0 102911
05:00+13св01653 0.0 102910
08:00+17юв11565 0.0 1030117
11:00+22вюв11445 0.0 1030740
14:00+24юв21390 0.0 10291545
17:00+25юв223810 0.0 10281951
20:00+22ю225327 0.0 102832
13 мая, чт
чт1323:00+17ююз22562 0.0 102818
02:00+16ююз11510 0.0 102811
05:00+14юз11540 0.0 102911
08:00+18ю11480 0.0 1029102
11:00+23ю22380 0.0 1029787
14:00+25ююз33280 0.0 10281897
17:00+26ююз23285 0.0 10271998
20:00+22юз11435 0.0 102611
14 мая, пт
пт1423:00+18юв11463 0.0 102611
02:00+16ююв11510 0.0 102611
05:00+15ююв22575 0.0 102711
08:00+19ю24565 0.0 1027170
11:00+24ююз34395 0.0 1026775
14:00+26юз4433100 0.0 10251768
17:00+25ююз453798 0.0 10251391
20:00+23ю11495 0.0 102412